GW5240 Weather Reports


Display with metric or nautical units.
time (UTC)temp
F
wind
direction
speed
MPH
gust
MPH
rain 1hr
in
rain 24hr
in
rain mn
in
humidity
%
barometer
mb
20260506135100 40 341 2.0 3.0 0.00 0.00 0.00 53 1016.8
20260506134556 40 274 3.0 3.0 0.00 0.00 0.00 54 1016.8
20260506134052 40 186 3.0 3.0 0.00 0.00 0.00 54 1016.8
20260506133549 40 176 1.0 2.0 0.00 0.00 0.00 54 1016.9
20260506133046 40 181 0.0 0.0 0.00 0.00 0.00 54 1016.7
20260506132544 40 259 2.0 3.0 0.00 0.00 0.00 54 1016.6
20260506132041 40 188 0.0 2.0 0.00 0.00 0.00 55 1016.6
20260506131538 40 289 2.0 2.0 0.00 0.00 0.00 55 1016.6
20260506131034 39 181 2.0 2.0 0.00 0.00 0.00 56 1016.5
20260506130531 39 301 3.0 3.0 0.00 0.00 0.00 56 1016.8
20260506130029 39 178 1.0 2.0 0.00 0.00 0.00 57 1016.4
20260506125527 38 48 3.0 3.0 0.00 0.00 0.00 58 1016.3
20260506125024 38 126 2.0 3.0 0.00 0.00 0.00 58 1016.4
20260506124522 38 318 4.0 5.0 0.00 0.00 0.00 59 1016.2
20260506124020 37 158 0.0 0.0 0.00 0.00 0.00 61 1016.2
20260506123517 37 18 3.0 5.0 0.00 0.00 0.00 61 1016.1
20260506123015 37 315 3.0 3.0 0.00 0.00 0.00 61 1016.2
20260506122512 37 337 3.0 5.0 0.00 0.00 0.00 62 1016.0
20260506122010 36 145 0.0 0.0 0.00 0.00 0.00 63 1016.1
20260506121507 35 179 1.0 2.0 0.00 0.00 0.00 64 1015.9
20260506121003 35 154 2.0 3.0 0.00 0.00 0.00 65 1015.8
20260506120501 35 168 1.0 2.0 0.00 0.00 0.00 65 1015.7
20260506115958 35 221 0.0 2.0 0.00 0.00 0.00 66 1015.7
20260506115456 35 238 2.0 3.0 0.00 0.00 0.00 67 1015.5
20260506114954 34 243 2.0 3.0 0.00 0.00 0.00 68 1015.5
20260506114451 34 1 1.0 2.0 0.00 0.00 0.00 69 1015.4
20260506113950 33 339 3.0 5.0 0.00 0.00 0.00 70 1015.4
20260506113447 33 269 1.0 2.0 0.00 0.00 0.00 70 1015.4
20260506112943 33 162 0.0 2.0 0.00 0.00 0.00 71 1015.4
20260506112441 33 205 1.0 2.0 0.00 0.00 0.00 70 1015.2
20260506111938 33 228 2.0 2.0 0.00 0.00 0.00 71 1015.1
20260506111437 32 186 0.0 0.0 0.00 0.00 0.00 72 1015.2
20260506110933 32 188 0.0 0.0 0.00 0.00 0.00 71 1015.4
20260506110431 32 172 0.0 0.0 0.00 0.00 0.00 71 1015.6
20260506105927 32 167 0.0 0.0 0.00 0.00 0.00 71 1015.4
20260506105424 32 180 0.0 0.0 0.00 0.00 0.00 73 1015.4
20260506104921 31 162 0.0 2.0 0.00 0.00 0.00 75 1015.6
20260506104419 30 170 0.0 0.0 0.00 0.00 0.00 75 1015.4
20260506103917 30 171 0.0 0.0 0.00 0.00 0.00 75 1015.5
20260506103414 30 167 0.0 0.0 0.00 0.00 0.00 74 1015.5
20260506102911 30 173 0.0 0.0 0.00 0.00 0.00 74 1015.3
20260506102409 30 173 0.0 0.0 0.00 0.00 0.00 73 1015.3
20260506101906 30 173 0.0 0.0 0.00 0.00 0.00 74 1015.0
20260506101402 30 173 0.0 0.0 0.00 0.00 0.00 75 1015.0
20260506100859 30 172 0.0 0.0 0.00 0.00 0.00 74 1014.8
20260506100358 30 170 0.0 0.0 0.00 0.00 0.00 74 1014.9
20260506095856 30 170 0.0 0.0 0.00 0.00 0.00 74 1015.0
20260506095354 30 168 0.0 0.0 0.00 0.00 0.00 74 1015.2
20260506094850 30 168 0.0 0.0 0.00 0.00 0.00 74 1014.9
20260506094349 30 176 0.0 0.0 0.00 0.00 0.00 75 1014.9
20260506093846 30 175 0.0 0.0 0.00 0.00 0.00 75 1014.7
20260506093343 30 177 0.0 0.0 0.00 0.00 0.00 74 1014.9
20260506092841 30 177 0.0 0.0 0.00 0.00 0.00 74 1014.9
20260506092339 30 171 0.0 0.0 0.00 0.00 0.00 74 1015.0
20260506091835 30 172 0.0 0.0 0.00 0.00 0.00 74 1014.9
20260506091333 30 172 0.0 0.0 0.00 0.00 0.00 75 1015.1
20260506090830 30 172 0.0 0.0 0.00 0.00 0.00 75 1014.9
20260506090328 30 172 0.0 0.0 0.00 0.00 0.00 75 1015.0
20260506085824 30 172 0.0 0.0 0.00 0.00 0.00 74 1014.9
20260506085320 30 172 0.0 0.0 0.00 0.00 0.00 73 1014.7
20260506084817 30 172 0.0 0.0 0.00 0.00 0.00 73 1014.6
20260506084314 30 172 0.0 0.0 0.00 0.00 0.00 71 1014.7
20260506083810 31 172 0.0 0.0 0.00 0.00 0.00 70 1014.6
20260506083308 31 172 0.0 0.0 0.00 0.00 0.00 70 1014.6
20260506082806 32 172 0.0 0.0 0.00 0.00 0.00 70 1014.6
20260506082304 32 172 0.0 0.0 0.00 0.00 0.00 70 1014.4
20260506081758 32 172 0.0 0.0 0.00 0.00 0.00 69 1014.6
20260506081256 32 172 0.0 0.0 0.00 0.00 0.00 68 1014.7
20260506080754 32 172 0.0 0.0 0.00 0.00 0.00 68 1014.8
20260506080250 32 172 0.0 0.0 0.00 0.00 0.00 68 1014.8
20260506073234 34 203 0.0 2.0 0.00 0.00 0.00 63 1014.5
20260506072731 35 177 0.0 0.0 0.00 0.00 0.00 63 1014.3
20260506072228 35 177 0.0 0.0 0.00 0.00 0.00 62 1014.2
20260506071726 35 180 0.0 2.0 0.00 0.00 0.00 62 1014.3
20260506071224 35 186 0.0 0.0 0.00 0.00 0.00 61 1014.2
20260506070720 36 180 0.0 0.0 0.00 0.00 0.00 61 1014.5
20260506070217 36 176 0.0 0.0 0.00 0.00 0.00 60 1014.5
20260506062154 37 181 0.0 0.0 0.00 0.00 0.00 57 1014.2
20260506061650 37 144 1.0 2.0 0.00 0.00 0.00 57 1014.4
20260506061148 37 181 0.0 2.0 0.00 0.00 0.00 57 1014.4
20260506060646 38 169 0.0 0.0 0.00 0.00 0.00 56 1014.4
20260506060143 38 180 2.0 3.0 0.00 0.00 0.00 55 1014.3
20260506051115 39 164 1.0 2.0 0.00 0.00 0.00 55 1014.0
20260506050613 39 198 0.0 2.0 0.00 0.00 0.00 54 1013.9
20260506050110 39 341 1.0 2.0 0.00 0.00 0.00 55 1013.7
20260506045103 39 282 0.0 2.0 0.00 0.00 0.00 54 1013.8
20260506044602 40 181 0.0 0.0 0.00 0.00 0.00 54 1013.7
20260506044058 40 238 1.0 2.0 0.00 0.00 0.00 54 1013.8
20260506043555 40 117 2.0 2.0 0.00 0.00 0.00 53 1013.7
20260506043053 40 175 0.0 0.0 0.00 0.00 0.00 54 1013.5
20260506042552 40 179 2.0 3.0 0.00 0.00 0.00 54 1013.6
20260506042049 40 183 1.0 2.0 0.00 0.00 0.00 53 1013.6
20260506041548 40 214 0.0 2.0 0.00 0.00 0.00 54 1013.6
20260506041044 41 273 2.0 3.0 0.00 0.00 0.00 53 1013.7
20260506040542 41 175 0.0 2.0 0.00 0.00 0.00 51 1013.6
20260506040038 41 327 3.0 3.0 0.00 0.00 0.00 51 1013.7
20260506035535 41 178 2.0 3.0 0.00 0.00 0.00 51 1013.8
20260506035032 41 307 4.0 5.0 0.00 0.00 0.00 51 1013.7
20260506034529 41 160 1.0 2.0 0.00 0.00 0.00 51 1013.4
20260506034026 42 160 2.0 2.0 0.00 0.00 0.00 50 1013.7
20260506033523 42 156 0.0 2.0 0.00 0.00 0.00 51 1013.4
20260506033021 42 25 2.0 3.0 0.00 0.00 0.00 50 1013.6
20260506032518 42 180 0.0 0.0 0.00 0.00 0.00 50 1013.4
20260506032014 43 143 4.0 5.0 0.00 0.00 0.00 50 1013.3
20260506031512 43 298 2.0 3.0 0.00 0.00 0.00 50 1013.4
20260506031009 43 168 2.0 3.0 0.00 0.00 0.00 50 1013.5
20260506030507 43 244 2.0 3.0 0.00 0.00 0.00 50 1013.5
20260506030004 43 134 0.0 2.0 0.00 0.00 0.00 50 1013.2
20260506025500 43 15 2.0 3.0 0.00 0.00 0.00 50 1013.2
20260506024957 43 347 4.0 7.0 0.00 0.00 0.00 50 1012.9
20260506024454 43 173 0.0 0.0 0.00 0.00 0.00 50 1012.8
20260506023949 43 205 1.0 2.0 0.00 0.00 0.00 49 1012.7
20260506023447 44 151 1.0 2.0 0.00 0.00 0.00 49 1012.7
20260506022943 44 194 1.0 2.0 0.00 0.00 0.00 48 1012.4
20260506022441 44 211 0.0 2.0 0.00 0.00 0.00 48 1012.4
20260506021939 44 210 0.0 0.0 0.00 0.00 0.00 47 1012.5
20260506021436 44 192 3.0 5.0 0.00 0.00 0.00 46 1012.4
20260506020933 44 234 2.0 3.0 0.00 0.00 0.00 46 1012.2
20260506020431 45 138 0.0 0.0 0.00 0.00 0.00 46 1012.2
20260506015927 45 191 2.0 3.0 0.00 0.00 0.00 45 1012.1
20260506015425 45 273 3.0 3.0 0.00 0.00 0.00 45 1012.0
20260506014922 45 280 3.0 3.0 0.00 0.00 0.00 45 1012.0
20260506014419 45 264 2.0 2.0 0.00 0.00 0.00 44 1012.1
20260506013915 46 274 5.0 7.0 0.00 0.00 0.00 45 1012.1
20260506013414 46 264 1.0 2.0 0.00 0.00 0.00 44 1011.7
20260506012909 46 347 3.0 5.0 0.00 0.00 0.00 44 1011.7
20260506012406 46 87 4.0 5.0 0.00 0.00 0.00 44 1011.6
20260506011903 46 184 0.0 2.0 0.00 0.00 0.00 44 1011.7
20260506011400 47 185 2.0 2.0 0.00 0.00 0.00 43 1011.6
20260506010857 47 235 6.0 9.0 0.00 0.00 0.00 43 1011.5
20260506010355 47 292 6.0 10.0 0.00 0.00 0.00 43 1011.4
20260506005852 47 300 2.0 3.0 0.00 0.00 0.00 43 1011.5
20260506005349 48 214 2.0 5.0 0.00 0.00 0.00 43 1011.4
20260506004844 48 182 1.0 2.0 0.00 0.00 0.00 42 1011.3
20260506004343 48 166 4.0 5.0 0.00 0.00 0.00 40 1011.4
20260506003839 49 9 6.0 9.0 0.00 0.00 0.00 40 1011.5
20260506003335 49 274 1.0 3.0 0.00 0.00 0.00 40 1011.0
20260506002831 49 301 4.0 5.0 0.00 0.00 0.00 40 1011.2
20260506002328 49 337 3.0 5.0 0.00 0.00 0.00 40 1011.2
20260506001823 49 323 7.0 14.0 0.00 0.00 0.00 39 1011.1
20260506001321 49 13 3.0 3.0 0.00 0.00 0.00 40 1011.0
20260506000818 49 144 4.0 7.0 0.00 0.00 0.00 40 1010.8
20260506000316 49 291 3.0 3.0 0.00 0.00 0.00 39 1010.8
20260505235812 49 173 2.0 3.0 0.00 0.00 0.00 39 1010.8
20260505235310 49 289 5.0 7.0 0.00 0.00 0.00 39 1011.0
20260505234806 49 215 2.0 2.0 0.00 0.00 0.00 40 1010.8
20260505234304 49 7 4.0 5.0 0.00 0.00 0.00 39 1010.9
20260505233801 49 320 3.0 3.0 0.00 0.00 0.00 40 1010.7
20260505233259 49 335 5.0 9.0 0.00 0.00 0.00 39 1010.7
20260505232755 49 359 5.0 5.0 0.00 0.00 0.00 40 1010.8
20260505232253 49 177 0.0 2.0 0.00 0.00 0.00 40 1010.8
20260505231749 49 247 1.0 2.0 0.00 0.00 0.00 41 1010.8
20260505231248 49 272 2.0 5.0 0.00 0.00 0.00 40 1010.9
20260505230746 50 166 2.0 3.0 0.00 0.00 0.00 39 1010.8
20260505230242 50 242 2.0 2.0 0.00 0.00 0.00 39 1010.8
20260505225739 50 359 3.0 3.0 0.00 0.00 0.00 39 1010.9
20260505225236 51 204 3.0 5.0 0.00 0.00 0.00 39 1010.7
20260505224731 53 337 4.0 5.0 0.00 0.00 0.00 36 1010.7
20260505224229 52 349 4.0 7.0 0.00 0.00 0.00 37 1010.7
20260505223727 53 182 5.0 9.0 0.00 0.00 0.00 37 1010.8
20260505223223 52 192 4.0 5.0 0.00 0.00 0.00 39 1010.7
20260505222719 51 217 3.0 3.0 0.00 0.00 0.00 39 1010.7
20260505222215 51 168 4.0 7.0 0.00 0.00 0.00 39 1010.7
20260505221713 51 137 3.0 3.0 0.00 0.00 0.00 39 1010.7
20260505221209 50 322 3.0 5.0 0.00 0.00 0.00 39 1010.8
20260505220706 51 9 4.0 5.0 0.00 0.00 0.00 40 1010.8
20260505220204 51 257 5.0 9.0 0.00 0.00 0.00 39 1010.8
20260505215701 50 37 8.0 10.0 0.00 0.00 0.00 39 1011.0
20260505215159 50 310 4.0 5.0 0.00 0.00 0.00 40 1010.9
20260505214657 50 221 1.0 2.0 0.00 0.00 0.00 39 1010.7
20260505214154 50 57 4.0 5.0 0.00 0.00 0.00 39 1011.0
20260505213651 50 329 10.0 15.0 0.00 0.00 0.00 38 1010.8
20260505213148 51 0 5.0 7.0 0.00 0.00 0.00 38 1010.9
20260505212644 51 217 6.0 7.0 0.00 0.00 0.00 39 1010.7
20260505212142 51 72 3.0 3.0 0.00 0.00 0.00 38 1010.8
20260505211638 51 0 4.0 5.0 0.00 0.00 0.00 38 1010.8
20260505211136 51 172 0.0 2.0 0.00 0.00 0.00 41 1010.7
20260505210632 51 328 2.0 3.0 0.00 0.00 0.00 38 1010.9
20260505210129 51 187 2.0 3.0 0.00 0.00 0.00 38 1010.9
20260505205626 51 198 2.0 2.0 0.00 0.00 0.00 39 1010.9
20260505205125 51 154 2.0 2.0 0.00 0.00 0.00 38 1011.0
20260505204621 51 358 2.0 3.0 0.00 0.00 0.00 40 1011.1
20260505204119 51 322 2.0 3.0 0.00 0.00 0.00 40 1010.9
20260505203615 51 354 5.0 7.0 0.00 0.00 0.00 39 1011.0
20260505203113 51 12 5.0 5.0 0.00 0.00 0.00 39 1011.0
20260505202608 51 356 2.0 7.0 0.00 0.00 0.00 38 1011.0
20260505202104 52 283 7.0 10.0 0.00 0.00 0.00 37 1011.1
20260505201601 51 333 4.0 9.0 0.00 0.00 0.00 38 1011.1
20260505201059 51 220 2.0 3.0 0.00 0.00 0.00 39 1011.2
20260505200557 51 335 3.0 5.0 0.00 0.00 0.00 39 1011.3
20260505200053 52 262 4.0 5.0 0.00 0.00 0.00 38 1011.0
20260505195549 52 250 2.0 3.0 0.00 0.00 0.00 38 1011.1
20260505195047 52 112 2.0 2.0 0.00 0.00 0.00 41 1011.1
20260505194544 51 265 4.0 5.0 0.00 0.00 0.00 39 1011.2
20260505194039 51 158 2.0 3.0 0.00 0.00 0.00 39 1011.0
20260505193537 52 230 5.0 9.0 0.00 0.00 0.00 38 1011.1
20260505193034 52 7 7.0 9.0 0.00 0.00 0.00 37 1010.7
20260505192532 53 194 3.0 5.0 0.00 0.00 0.00 37 1011.0
20260505192030 54 188 2.0 3.0 0.00 0.00 0.00 37 1011.0
20260505191528 53 40 7.0 10.0 0.00 0.00 0.00 37 1011.1
20260505191026 53 240 3.0 5.0 0.00 0.00 0.00 36 1011.1
20260505190520 53 275 10.0 14.0 0.00 0.00 0.00 36 1011.0
20260505190016 53 295 4.0 9.0 0.00 0.00 0.00 37 1011.0
20260505185513 53 258 6.0 10.0 0.00 0.00 0.00 37 1011.1
20260505185009 52 282 3.0 3.0 0.00 0.00 0.00 38 1011.2
20260505184507 50 252 3.0 3.0 0.00 0.00 0.00 40 1011.1
20260505184003 50 334 3.0 5.0 0.00 0.00 0.00 39 1011.1
20260505183500 50 137 4.0 5.0 0.00 0.00 0.00 39 1011.0
20260505182956 51 199 2.0 3.0 0.00 0.00 0.00 39 1011.0
20260505182454 51 146 0.0 2.0 0.00 0.00 0.00 39 1011.0
20260505181950 50 299 2.0 3.0 0.00 0.00 0.00 40 1011.1
20260505181447 51 137 2.0 3.0 0.00 0.00 0.00 39 1011.1
20260505180944 51 114 6.0 9.0 0.00 0.00 0.00 38 1011.1
20260505180440 51 10 8.0 10.0 0.00 0.00 0.00 38 1011.0
20260505175937 51 188 2.0 2.0 0.00 0.00 0.00 38 1011.2
20260505175433 51 1 3.0 5.0 0.00 0.00 0.00 38 1011.2
20260505174930 51 333 7.0 9.0 0.00 0.00 0.00 36 1011.2
20260505174427 50 359 3.0 3.0 0.00 0.00 0.00 38 1011.3
20260505173923 51 189 3.0 7.0 0.00 0.00 0.00 37 1011.1
20260505173420 50 158 2.0 5.0 0.00 0.00 0.00 39 1011.0
20260505172917 50 13 3.0 3.0 0.00 0.00 0.00 39 1011.2
20260505172415 49 205 2.0 3.0 0.00 0.00 0.00 42 1011.3
20260505171914 50 7 2.0 3.0 0.00 0.00 0.00 38 1011.3
20260505171411 50 92 4.0 7.0 0.00 0.00 0.00 39 1011.2
20260505170908 50 206 1.0 3.0 0.00 0.00 0.00 39 1011.4
20260505170405 49 350 5.0 7.0 0.00 0.00 0.00 40 1011.2
20260505165900 48 193 2.0 2.0 0.00 0.00 0.00 40 1011.3
20260505165356 49 187 4.0 5.0 0.00 0.00 0.00 39 1011.3
20260505164852 50 311 9.0 12.0 0.00 0.00 0.00 36 1011.4
20260505164348 51 196 4.0 5.0 0.00 0.00 0.00 36 1011.3
20260505163847 51 196 2.0 2.0 0.00 0.00 0.00 37 1011.5
20260505163346 50 191 3.0 5.0 0.00 0.00 0.00 39 1011.2
20260505162844 50 173 1.0 2.0 0.00 0.00 0.00 39 1011.3
20260505162339 50 263 3.0 9.0 0.00 0.00 0.00 37 1011.3
20260505161837 48 289 4.0 5.0 0.00 0.00 0.00 39 1011.4
20260505161333 48 271 6.0 9.0 0.00 0.00 0.00 40 1011.1
20260505160831 49 225 2.0 3.0 0.00 0.00 0.00 37 1011.2
20260505160329 49 69 3.0 5.0 0.00 0.00 0.00 38 1011.2
20260505153308 48 46 6.0 9.0 0.00 0.00 0.00 40 1011.2
20260505152805 48 27 3.0 3.0 0.00 0.00 0.00 40 1011.4
20260505152304 48 91 2.0 3.0 0.00 0.00 0.00 40 1011.4
20260505151755 49 331 3.0 5.0 0.00 0.00 0.00 40 1011.1
20260505151253 48 210 5.0 7.0 0.00 0.00 0.00 42 1011.2
20260505150750 48 347 5.0 7.0 0.00 0.00 0.00 40 1011.3
20260505150247 47 234 2.0 3.0 0.00 0.00 0.00 45 1011.2
20260505140212 44 20 3.0 5.0 0.00 0.00 0.00 44 1010.7